TimeMDT,TemperatureF,Dew PointF,Humidity,Sea Level PressureIn,VisibilityMPH,Wind Direction,Wind SpeedMPH,Gust SpeedMPH,PrecipitationIn,Events,Conditions,WindDirDegrees,DateUTC
12:15 AM,66.2,48.2,52,30.15,10.0,Calm,Calm,-,N/A,,Clear,0,2013-07-15 06:15:00
12:55 AM,64.4,48.2,56,30.15,10.0,SSW,4.6,-,N/A,,Partly Cloudy,210,2013-07-15 06:55:00
1:15 AM,64.4,48.2,56,30.14,10.0,South,3.5,-,N/A,,Clear,180,2013-07-15 07:15:00
1:55 AM,66.2,48.2,52,30.14,10.0,South,3.5,-,N/A,,Clear,170,2013-07-15 07:55:00
2:15 AM,64.4,46.4,52,30.14,10.0,Calm,Calm,-,N/A,,Clear,0,2013-07-15 08:15:00
2:35 AM,62.6,46.4,55,30.13,10.0,South,5.8,-,N/A,,Clear,190,2013-07-15 08:35:00
2:55 AM,64.4,46.4,52,30.13,10.0,SSW,6.9,-,N/A,,Clear,210,2013-07-15 08:55:00
3:15 AM,64.4,46.4,52,30.14,10.0,Calm,Calm,-,N/A,,Clear,0,2013-07-15 09:15:00
3:35 AM,62.6,46.4,55,30.13,10.0,WSW,3.5,-,N/A,,Mostly Cloudy,240,2013-07-15 09:35:00
3:55 AM,66.2,44.6,46,30.13,10.0,WSW,4.6,-,N/A,,Mostly Cloudy,240,2013-07-15 09:55:00
4:35 AM,62.6,46.4,55,30.13,10.0,Calm,Calm,-,N/A,,Mostly Cloudy,0,2013-07-15 10:35:00
4:55 AM,64.4,44.6,49,30.12,10.0,South,3.5,-,N/A,,Mostly Cloudy,190,2013-07-15 10:55:00
5:15 AM,62.6,44.6,52,30.12,10.0,SSW,8.1,-,N/A,,Mostly Cloudy,200,2013-07-15 11:15:00
5:35 AM,62.6,46.4,55,30.11,10.0,SW,5.8,-,N/A,,Partly Cloudy,230,2013-07-15 11:35:00
5:55 AM,62.6,44.6,52,30.11,10.0,Calm,Calm,-,N/A,,Clear,0,2013-07-15 11:55:00
6:15 AM,62.6,44.6,52,30.11,10.0,SSE,4.6,-,N/A,,Clear,160,2013-07-15 12:15:00
6:35 AM,64.4,42.8,45,30.11,10.0,South,5.8,-,N/A,,Clear,190,2013-07-15 12:35:00
6:55 AM,62.6,46.4,55,30.11,10.0,SW,4.6,-,N/A,,Clear,220,2013-07-15 12:55:00
7:15 AM,66.2,46.4,49,30.11,10.0,SW,5.8,-,N/A,,Clear,220,2013-07-15 13:15:00
7:35 AM,62.6,48.2,59,30.11,10.0,NNE,3.5,-,N/A,,Clear,30,2013-07-15 13:35:00
7:55 AM,66.2,48.2,52,30.12,10.0,ENE,3.5,-,N/A,,Clear,60,2013-07-15 13:55:00
8:15 AM,71.6,46.4,41,30.11,10.0,Calm,Calm,-,N/A,,Clear,0,2013-07-15 14:15:00
8:35 AM,73.4,50.0,44,30.11,10.0,Calm,Calm,-,N/A,,Clear,0,2013-07-15 14:35:00
8:55 AM,75.2,50.0,41,30.11,10.0,Calm,Calm,-,N/A,,Clear,0,2013-07-15 14:55:00
9:15 AM,75.2,48.2,38,30.11,10.0,Calm,Calm,-,N/A,,Clear,0,2013-07-15 15:15:00
9:35 AM,78.8,50.0,36,30.10,10.0,Calm,Calm,-,N/A,,Clear,0,2013-07-15 15:35:00
9:55 AM,80.6,51.8,37,30.09,10.0,WSW,6.9,-,N/A,,Clear,250,2013-07-15 15:55:00
10:15 AM,82.4,44.6,26,30.09,10.0,SW,9.2,-,N/A,,Clear,220,2013-07-15 16:15:00
10:36 AM,84.2,42.8,23,30.09,10.0,SSW,6.9,-,N/A,,Clear,200,2013-07-15 16:36:00
10:55 AM,86.0,42.8,22,30.08,9.0,SSW,12.7,-,N/A,,Clear,200,2013-07-15 16:55:00
11:15 AM,87.8,39.2,18,30.08,10.0,South,10.4,18.4,N/A,,Clear,190,2013-07-15 17:15:00
11:35 AM,87.8,39.2,18,30.07,10.0,South,4.6,-,N/A,,Clear,180,2013-07-15 17:35:00
11:55 AM,87.8,42.8,21,30.07,10.0,North,9.2,19.6,N/A,,Clear,350,2013-07-15 17:55:00
12:15 PM,87.8,39.2,18,30.06,10.0,NNW,6.9,-,N/A,,Clear,330,2013-07-15 18:15:00
12:35 PM,87.8,42.8,21,30.06,10.0,WNW,10.4,17.3,N/A,,Scattered Clouds,290,2013-07-15 18:35:00
12:55 PM,84.2,42.8,23,30.06,10.0,NNW,5.8,-,N/A,,Partly Cloudy,340,2013-07-15 18:55:00
1:15 PM,87.8,37.4,17,30.05,10.0,NE,5.8,-,N/A,,Partly Cloudy,50,2013-07-15 19:15:00
1:35 PM,89.6,37.4,16,30.04,10.0,North,11.5,-,N/A,,Partly Cloudy,360,2013-07-15 19:35:00
1:55 PM,87.8,41.0,19,30.04,10.0,NNE,10.4,-,N/A,,Clear,20,2013-07-15 19:55:00
2:35 PM,89.6,35.6,15,30.03,8.0,NNE,10.4,-,N/A,,Clear,30,2013-07-15 20:35:00
3:15 PM,91.4,37.4,15,30.02,10.0,NE,8.1,-,N/A,,Clear,50,2013-07-15 21:15:00
3:35 PM,91.4,33.8,13,30.01,10.0,ESE,12.7,16.1,N/A,,Clear,120,2013-07-15 21:35:00
3:55 PM,89.6,42.8,20,30.01,10.0,NNE,12.7,16.1,N/A,,Clear,20,2013-07-15 21:55:00
4:15 PM,89.6,42.8,20,30.01,10.0,NNE,10.4,-,N/A,,Clear,20,2013-07-15 22:15:00
4:35 PM,89.6,42.8,20,30.00,10.0,ENE,9.2,-,N/A,,Clear,60,2013-07-15 22:35:00
4:55 PM,91.4,39.2,16,29.99,10.0,ENE,11.5,17.3,N/A,,Clear,70,2013-07-15 22:55:00
5:15 PM,87.8,42.8,21,29.99,10.0,North,10.4,-,N/A,,Clear,360,2013-07-15 23:15:00
5:35 PM,87.8,44.6,22,29.99,10.0,NNE,10.4,-,N/A,,Clear,20,2013-07-15 23:35:00
5:55 PM,86.0,42.8,22,29.99,10.0,NNE,8.1,-,N/A,,Clear,30,2013-07-15 23:55:00
6:35 PM,84.2,44.6,25,29.98,10.0,North,9.2,-,N/A,,Clear,360,2013-07-16 00:35:00
7:15 PM,84.2,42.8,23,29.98,10.0,NE,6.9,-,N/A,,Clear,40,2013-07-16 01:15:00
7:35 PM,84.2,46.4,27,29.98,10.0,NNE,6.9,-,N/A,,Clear,20,2013-07-16 01:35:00
7:55 PM,82.4,44.6,26,29.98,10.0,North,4.6,-,N/A,,Clear,10,2013-07-16 01:55:00
8:35 PM,82.4,39.2,21,29.99,10.0,ENE,4.6,-,N/A,,Clear,70,2013-07-16 02:35:00
8:55 PM,80.6,37.4,21,30.00,10.0,Calm,Calm,-,N/A,,Clear,0,2013-07-16 02:55:00
9:15 PM,78.8,41.0,26,30.01,10.0,South,4.6,-,N/A,,Clear,170,2013-07-16 03:15:00
9:35 PM,73.4,44.6,36,30.02,10.0,Calm,Calm,-,N/A,,Clear,0,2013-07-16 03:35:00
9:55 PM,75.2,41.0,29,30.02,10.0,West,5.8,-,N/A,,Clear,280,2013-07-16 03:55:00
10:15 PM,75.2,39.2,27,30.03,10.0,West,4.6,-,N/A,,Clear,270,2013-07-16 04:15:00
10:35 PM,75.2,39.2,27,30.04,10.0,WNW,6.9,-,N/A,,Clear,300,2013-07-16 04:35:00
10:55 PM,75.2,39.2,27,30.04,10.0,WNW,5.8,-,N/A,,Clear,300,2013-07-16 04:55:00
11:15 PM,75.2,37.4,25,30.04,10.0,WNW,3.5,-,N/A,,Clear,300,2013-07-16 05:15:00
11:35 PM,75.2,37.4,25,30.04,10.0,Calm,Calm,-,N/A,,Clear,0,2013-07-16 05:35:00
11:55 PM,73.4,37.4,27,30.05,10.0,West,3.5,-,N/A,,Clear,270,2013-07-16 05:55:00